NWS Melbourne » East Central Florida Hourly Weather Roundup

MIARWRMLB 000
TTAA00 KMLB 301511
HOURLY WEATHER ROUNDUP AROUND FLORIDA
NATIONAL WEATHER SERVICE OFFICE MELBOURNE FL
1100 AM EDT THU OCT 30 2014
  
CITY           SKY/WX    TMP DP  RH WIND       PRES   REMARKS
MELBOURNE      SUNNY     81  65  58 VRB3      29.98S                  
FORT PIERCE    SUNNY     81  65  58 W6        29.98S                  
ORLANDO INTL   MOSUNNY   78  65  63 SW3       29.99F                  
DAYTONA BEACH  MOSUNNY   77  66  68 N5        29.99S                  
VERO BEACH     SUNNY     78  62  57 CALM      29.99S                  
$$
...ELSEWHERE ACROSS CENTRAL FLORIDA...
  
CITY           SKY/WX    TMP DP  RH WIND       PRES   REMARKS
PATRICK AFB    SUNNY     79  67  66 W1        29.98S                  
JFK SPACE CTR  SUNNY     77  66  68 NW5       29.98F                  
CAPE CANAVERAL SUNNY     79  65  62 NW7       29.97F                  
TITUSVILLE     SUNNY     77  66  69 W7        29.99S                  
ORLANDO EXEC   PTSUNNY   78  67  68 W3        29.99F                  
LEESBURG       MOSUNNY   77  65  66 CALM      30.01R                  
SANFORD        SUNNY     79  66  64 NE3       29.99S                  
WINTER HAVEN   MOSUNNY   79  66  64 VRB3      30.00F                  
KISSIMMEE      MOSUNNY   79  68  69 CALM      29.99F                  
OKEECHOBEE     SUNNY     79  68  69 MISG      29.99                   
TAMPA          PTSUNNY   79  63  57 CALM      29.99S                  
$$
...NORTHERN FLORIDA...
  
CITY           SKY/WX    TMP DP  RH WIND       PRES   REMARKS
DELAND         SUNNY     77  66  69 N6        30.00S                  
NEW SMYRNA BCH SUNNY     77  66  69 NW3       30.00S                  
ORMOND BEACH   SUNNY     75  66  73 NW6       29.99S                  
PALM COAST     SUNNY    N/A N/A N/A CALM      29.99F                  
ST AUGUSTINE   SUNNY     75  68  78 VRB7      29.99F                  
OCALA          PTSUNNY   75  66  73 NE6       30.01R                  
GAINESVILLE    CLOUDY    68  65  90 CALM      30.00F                  
JACKSONVILLE   MOSUNNY   73  64  73 NW6       29.99S                  
TALLAHASSEE    PTSUNNY   68  47  46 N10       30.03S                  
$$
...ALONG THE SOUTHEAST COAST TO THE KEYS...
  
CITY           SKY/WX    TMP DP  RH WIND       PRES   REMARKS
STUART         MOSUNNY   77  64  65 W5        30.00R                  
WEST PALM BCH  MOSUNNY   80  67  64 W8        29.97S                  
MIAMI          MOSUNNY   81  66  60 SW3       29.98F                  
KEY WEST       SUNNY     80  71  74 SE7       29.99S                  
$$
...MARINE REPORTS...
  
STATION/POSITION TIME  TEMP    WIND        PRES    WAVE   SWELL
                       AIR SEA DIR/SP/G            HT/PER HT/PER/DIR
                 (UTC) (F)     (DEG/KT/KT) (MB)    (FT/S) (FT/S/D)
ST AUGUSTINE FP  1500   71      10/  7/  7 1016.0F
20NM E CAPE CANA 1500   76 80  290/  8/ 10 1015.5S   2/ 7   2/ 90/ 7
120 E NEW SMYRNA 1500   78 81  310/  4/  6 1015.2F   4/ 7   3/110/ 7
TRIDENT PIER     1500   77 78  280/  8/ 11 1014.8F
SEBASTIAN INLET  1500   77     290/  5     1016.0S
4NM E PORT CANAV 1500      78                N/A     1/ 6
6NM NE FPR INLET 1500      79                N/A     1/ 8
SETTLEMENT PT GB 1500   77      40/  6/  7 1015.7R
$$
  
 


USA.gov is the U.S. government's official web portal to all federal, state and local government web resources and services.